This demonstration page uses our WeatherBlox Daily Observations layout. Learn more.

Left ArrowRight Arrow

44.8408, -93.29828

Hourly Observations for July 26, 2021

Temp ( °F °C ) Dew Point ( °F °C ) Humidity (%) Winds ( mph kmh ) Pressure ( in mb ) Visibility ( mi km ) Precip ( " mm )
12:53 am 00:53 Clear 78 25.6 58 14.4 50 50 S 3 6 29.96 1015 9 14 0.00 0.00
1:53 am 01:53 Partly Cloudy 78 25.6 58 14.4 50 50 S 3 6 29.96 1014 9 14 0.00 0.00
2:53 am 02:53 Mostly Cloudy 77 25 58 14.4 52 52 Calm 29.96 1015 9 14 0.00 0.00
3:13 am 03:13 Partly Cloudy with Nearby Thunderstorms 75 23.9 61 16.1 62 62 W 3 6 29.96 1014 9 14 0.00 0.00
3:53 am 03:53 Cloudy with Nearby Thunderstorms 75 23.9 63 17.2 66 66 W 14 22 29.97 1015 8 13 0.00 0.00
4:03 am 04:03 Cloudy with Rain 72 22.2 63 17.2 73 73 WNW 18 30 29.95 1014 6 10 0.01 0.25
4:14 am 04:14 Cloudy with Nearby Thunderstorms 72 22.2 63 17.2 73 73 WSW 13 20 29.95 1014 8 13 0.03 0.76
4:29 am 04:29 Cloudy 72 22.2 63 17.2 73 73 S 8 13 29.92 1013 10 16 0.06 1.52
4:53 am 04:53 Cloudy 72 22.2 63 17.2 73 73 SW 14 22 29.95 1014 10 16 0.06 1.52
5:53 am 05:53 Mostly Cloudy 71 21.7 65 18.3 81 81 NNE 3 6 29.96 1015 10 16 0.00 0.00
6:53 am 06:53 Mostly Cloudy 73 22.8 67 19.4 81 81 SSW 8 13 29.98 1015 8 13 0.00 0.00
7:53 am 07:53 Partly Cloudy 76 24.4 63 17.2 64 64 SSW 5 7 29.96 1015 9 14 0.00 0.00
8:53 am 08:53 Mostly Sunny 78 25.6 64 17.8 62 62 SSE 3 6 29.95 1014 10 16 0.00 0.00
9:53 am 09:53 Mostly Cloudy 83 28.3 66 18.9 57 57 Calm 29.97 1015 10 16 0.00 0.00
10:53 am 10:53 Mostly Cloudy 85 29.4 66 18.9 53 53 W 14 22 29.98 1015 10 16 0.00 0.00
11:53 am 11:53 Mostly Cloudy 85 29.4 67 19.4 55 55 W 15 24 29.99 1016 10 16 0.00 0.00
12:53 pm 12:53 Mostly Cloudy 88 31.1 68 20 52 52 WSW 9 15 29.97 1015 10 16 0.00 0.00
1:53 pm 13:53 Mostly Cloudy 86 30 64 17.8 48 48 SSW 10 17 29.93 1014 10 16 0.00 0.00
2:53 pm 14:53 Mostly Cloudy 88 31.1 67 19.4 50 50 S 12 19 29.93 1014 10 16 0.00 0.00
3:53 pm 15:53 Mostly Cloudy 89 31.7 64 17.8 43 43 SW 12 19 29.91 1013 10 16 0.00 0.00
4:53 pm 16:53 Mostly Sunny 90 32.2 66 18.9 45 45 SSW 13 20 29.90 1013 10 16 0.00 0.00
5:53 pm 17:53 Mostly Sunny 89 31.7 66 18.9 47 47 SW 10 17 29.89 1012 10 16 0.00 0.00
6:53 pm 18:53 Mostly Sunny 87 30.6 69 20.6 55 55 SW 13 20 29.88 1012 10 16 0.00 0.00
7:53 pm 19:53 Partly Cloudy 86 30 70 21.1 59 59 SSW 10 17 29.88 1012 10 16 0.00 0.00
8:53 pm 20:53 Mostly Clear 85 29.4 71 21.7 63 63 SSW 8 13 29.88 1012 9 14 0.00 0.00
9:53 pm 21:53 Partly Cloudy 83 28.3 71 21.7 67 67 SW 7 11 29.90 1012 10 16 0.00 0.00
10:53 pm 22:53 Partly Cloudy 82 27.8 70 21.1 67 67 SSW 8 13 29.91 1013 10 16 0.00 0.00
11:53 pm 23:53 Partly Cloudy 81 27.2 69 20.6 67 67 SW 10 17 29.91 1013 10 16 0.00 0.00

Powered by AerisWeather